Satellite-Ground Cal/Val Site Overpasses Predictions

Prediction of Satellite NPP Overpassing Cal/Val Site: Antarctic Dome C

Ground Cal/Val Site Location: Latitude: -75.10, Longitude: 123.35; Satellite-Ground Site NADIR distance within 100 km.

Table of predicted overpasses for the next 14.0 days since TLE Epoch: 4/7/2014
Interval Starting Time Ending Time Minimum Distance Time Minimum Distance (km)
1 04/08/2014 07:36:16 04/08/2014 07:36:45 04/08/2014 07:36:30 4.30
2 04/11/2014 14:59:51 04/11/2014 15:00:19 04/11/2014 15:00:05 29.78
3 04/12/2014 14:41:08 04/12/2014 14:41:27 04/12/2014 14:41:17 77.29
4 04/13/2014 07:42:44 04/13/2014 07:43:12 04/13/2014 07:42:58 32.31
5 04/14/2014 07:24:01 04/14/2014 07:24:19 04/14/2014 07:24:10 77.47
6 04/16/2014 15:06:21 04/16/2014 15:06:42 04/16/2014 15:06:32 67.29
7 04/17/2014 14:47:31 04/17/2014 14:47:58 04/17/2014 14:47:44 42.10
8 04/18/2014 07:49:13 04/18/2014 07:49:35 04/18/2014 07:49:24 67.77


NCC Satellite Cal/Val Overpasses Prediction Service
